Temp
17 18 20 20 19 20 20 20 18 17 18 17 16 15 15 15 16 16 15 15 15 16 16 15 14 13 13 11 11 10 10 9 9 9 10 11 10 9 10 10 10 9 9
15 15 17 17 18 19 19 18 17 17 17 17 16 15 14 14 15 14 14 14 15 15 14 14 13 12 11 10 10 9 9 8 7 6 4 3 7 9 11 10 9 8 9
15 14 14 16 17 17 18 18 17 16 16 17 16 14 13 12 12 13 13 13 14 14 13 12 12 11 10 9 8 8 8 7 6 6 5 3 2 2 6 8 7 6 6
14 15 13 13 15 17 17 17 17 16 16 16 15 15 13 12 11 12 12 12 12 12 12 11 10 10 9 8 8 7 6 6 5 5 5 5 4 1 1 4 4 4 3
15 14 13 15 15 16 16 15 15 15 15 15 16 15 13 13 12 12 12 11 11 11 10 10 10 9 8 8 7 6 6 5 4 4 3 3 3 3 -1 1 1 1 1
14 14 14 13 14 14 14 14 14 14 14 15 15 15 14 12 11 11 11 10 10 10 9 9 9 8 7 7 6 6 5 5 4 3 3 2 1 1 -0 -1 -0 -0 1
13 11 11 11 11 12 13 13 14 13 14 14 14 14 14 14 12 11 11 10 9 9 8 8 8 7 6 6 6 5 5 4 4 3 3 2 2 1 0 -1 -1 -1 -1
12 12 12 12 11 11 12 12 13 13 13 14 14 14 14 13 12 11 11 10 9 9 8 7 7 6 6 5 5 4 4 3 3 3 2 2 2 1 0 -1 -2 -2 -2
11 11 12 12 11 10 11 12 12 13 13 13 13 13 13 12 11 10 10 9 8 8 7 7 6 5 5 5 4 4 3 3 3 2 2 1 1 1 -0 -1 -1 -3 -3
11 11 11 10 10 10 11 12 13 12 12 12 12 12 11 11 10 10 9 8 7 7 6 6 5 5 4 4 3 3 3 2 2 1 1 1 1 0 -0 -1 -2 -2 -4
12 11 10 9 8 9 10 10 11 11 11 11 11 11 10 10 9 9 8 7 7 6 6 5 4 4 4 3 3 2 2 1 1 1 1 0 0 -0 -1 -1 -2 -3 -3
11 10 9 8 8 8 8 9 9 10 10 10 10 10 9 9 8 7 7 6 6 5 5 4 4 3 3 2 2 2 1 1 1 0 0 -0 -1 -1 -1 -2 -2 -3 -3
9 8 8 8 7 7 7 7 8 9 9 9 9 8 8 8 7 7 6 6 5 5 4 4 3 3 2 2 2 1 0 0 -0 -1 -1 -1 -2 -2 -2 -2 -3 -3 -3
9 9 9 8 7 7 6 6 7 9 8 9 8 8 7 7 6 6 5 5 4 4 3 3 2 2 2 1 1 0 -0 -0 -1 -1 -2 -2 -2 -3 -2 -3 -2 -2 -3
10 9 8 7 6 6 6 6 7 8 8 8 8 7 6 6 5 5 5 4 4 3 3 2 2 1 1 0 -0 -0 -0 -1 -2 -2 -2 -2 -3 -3 -2 -2 -2 -2 -3
10 9 8 7 6 6 5 5 6 7 8 7 6 6 5 5 5 4 4 3 3 3 2 2 1 1 0 -0 -1 -0 -1 -1 -2 -2 -2 -3 -3 -3 -3 -3 -2 -2 -3
10 9 8 7 6 6 6 5 7 7 7 6 5 5 5 4 4 3 3 3 2 2 1 1 0 -0 -1 -1 -1 -1 -1 -2 -2 -2 -2 -3 -3 -3 -3 -3 -3 -3 -3
10 9 8 6 6 6 6 7 7 7 6 5 5 5 4 4 3 3 3 2 2 1 1 0 -0 -1 -1 -2 -2 -2 -2 -2 -2 -2 -3 -3 -3 -3 -3 -3 -3 -4 -4
10 9 8 6 6 6 6 6 5 6 5 4 4 4 4 3 3 3 2 1 1 1 0 -1 -1 -2 -2 -3 -3 -2 -2 -2 -2 -3 -3 -3 -3 -3 -3 -3 -4 -4 -5
8 6 5 5 5 5 6 5 4 5 4 4 4 4 3 3 2 2 1 1 0 -0 -1 -1 -2 -2 -3 -3 -3 -2 -3 -3 -3 -3 -3 -4 -3 -3 -3 -3 -4 -5 -5
5 5 5 5 4 5 6 4 4 4 4 4 3 3 3 2 2 1 1 0 -0 -1 -1 -2 -2 -2 -3 -3 -3 -3 -3 -3 -3 -3 -4 -4 -4 -3 -3 -4 -5 -5 -4
4 4 3 3 3 5 6 3 4 3 3 3 3 2 2 1 1 1 -0 -1 -1 -2 -2 -3 -3 -3 -3 -4 -4 -3 -3 -3 -3 -4 -4 -4 -4 -4 -5 -5 -5 -5 -5
3 3 2 2 3 5 6 3 2 3 2 2 2 1 1 0 0 -0 -1 -1 -2 -3 -3 -4 -4 -4 -4 -4 -4 -4 -3 -3 -3 -4 -4 -4 -5 -6 -7 -7 -6 -6 -8
2 3 3 2 1 4 4 3 2 3 3 2 1 0 0 0 -0 -1 -2 -2 -3 -3 -3 -4 -4 -4 -4 -5 -4 -4 -4 -4 -4 -5 -5 -6 -7 -7 -7 -8 -8 -8 -8
2 3 2 0 -0 2 2 2 2 3 2 1 0 -0 -0 -1 -1 -2 -2 -3 -3 -4 -3 -4 -4 -4 -5 -4 -4 -4 -3 -4 -4 -5 -7 -8 -8 -8 -8 -8 -8 -8 -8
1 0 -0 -0 -0 1 1 2 2 2 2 0 -0 -1 -1 -2 -2 -2 -2 -3 -3 -4 -4 -4 -4 -4 -5 -4 -4 -4 -4 -4 -6 -7 -8 -9 -9 -9 -9 -9 -9 -9 -9
Height
724 723 723 724 725 727 727 728 732 737 741 746 753 760 765 770 774 777 781 784 787 789 791 794 795 796 794 795 795 794 794 794 792 789 785 783 782 782 782 781 781 781 780
721 719 719 720 722 724 724 726 730 736 739 742 748 755 762 768 772 777 782 786 787 788 791 793 793 794 794 795 794 794 795 795 794 794 792 791 784 781 780 779 779 778 777
716 715 716 716 719 721 722 724 728 733 737 741 747 755 763 768 773 778 782 785 787 788 790 792 792 794 794 794 794 796 796 797 797 797 798 798 797 788 779 778 777 777 776
707 707 710 713 715 715 721 723 726 732 736 739 744 748 754 764 771 774 779 783 786 788 790 791 793 793 793 794 795 797 798 798 798 798 798 799 798 796 785 776 775 774 773
695 698 701 703 708 713 715 721 724 730 734 738 743 747 754 760 768 773 777 782 785 788 790 791 792 793 794 795 797 798 798 798 799 798 797 797 795 793 793 779 772 770 768
686 688 692 697 704 711 714 719 723 729 734 738 742 745 750 758 766 773 777 781 785 788 789 791 792 793 794 796 797 797 798 798 797 797 796 795 794 792 791 784 776 770 762
681 686 690 695 701 707 711 717 721 727 733 738 742 745 750 755 763 770 775 780 783 787 790 792 792 793 795 796 797 797 797 796 795 795 793 792 791 790 789 784 776 766 757
679 682 685 688 695 701 707 714 720 725 733 737 742 747 751 758 766 771 776 779 783 787 790 792 793 794 795 796 795 795 795 794 793 791 790 789 788 787 786 783 778 762 755
678 680 683 687 690 698 704 710 718 724 732 738 742 748 754 760 766 772 777 781 784 788 790 791 792 794 795 794 793 793 792 791 790 788 787 785 784 783 781 779 777 773 757
671 676 682 686 691 696 703 710 718 724 732 739 744 750 756 761 767 773 777 782 785 787 789 790 791 793 793 793 792 791 790 788 787 785 783 781 779 778 776 773 771 769 764
663 668 675 686 691 699 704 710 718 724 733 740 746 751 757 763 768 773 778 782 784 786 788 789 791 792 792 791 790 787 786 784 783 781 779 777 775 772 770 768 765 761 758
662 669 676 683 690 699 707 712 719 725 734 741 747 753 758 765 769 774 778 781 784 786 787 788 789 790 790 788 785 784 783 782 780 778 775 772 770 767 765 762 758 754 749
671 674 681 686 693 701 707 715 721 726 735 743 749 755 761 766 771 775 778 781 783 785 786 787 787 787 786 784 783 782 781 779 777 774 771 768 765 762 759 755 750 745 741
677 681 685 688 694 703 709 717 723 728 736 745 751 757 762 767 771 775 778 780 782 784 785 785 786 785 783 782 781 780 778 776 774 771 768 764 761 757 753 748 744 740 735
678 683 687 692 698 704 713 720 726 732 739 747 753 759 764 768 772 775 778 780 781 783 783 784 783 783 781 780 779 777 775 772 769 767 763 760 756 753 749 744 738 733 726
677 685 690 696 700 706 715 722 727 734 742 748 754 760 765 769 772 775 777 779 781 782 782 782 781 780 779 778 776 774 772 769 765 762 758 755 751 746 743 738 733 728 720
676 685 690 694 701 708 715 721 728 736 743 750 756 761 765 769 772 775 777 779 780 781 781 780 780 779 777 775 774 772 768 765 762 758 753 749 746 741 736 730 725 719 717
677 685 691 698 705 711 717 723 731 738 745 752 758 762 766 769 773 776 777 779 780 779 779 779 778 776 774 773 771 768 764 761 758 753 748 744 739 735 730 723 716 712 708
675 684 692 698 705 711 717 724 734 741 747 753 759 763 767 770 773 776 778 779 778 778 778 777 775 773 772 770 766 763 760 756 752 748 744 741 736 731 724 717 711 705 700
674 687 694 700 706 714 719 727 736 743 749 755 760 764 768 771 774 776 777 777 777 777 776 774 774 772 769 765 764 761 757 751 747 743 740 737 733 725 719 713 707 700 693
683 691 697 701 708 715 722 731 739 746 752 757 761 766 770 773 775 776 777 777 776 775 774 774 771 768 767 764 761 757 753 748 743 739 734 731 726 720 715 709 703 698 690
692 695 700 708 715 719 725 734 742 749 754 759 763 767 771 773 775 776 776 775 775 774 773 770 768 766 764 761 758 754 750 746 741 736 731 726 721 715 710 705 700 694 688
695 700 705 712 720 725 729 737 746 751 756 761 765 768 771 774 774 774 774 775 774 772 771 769 766 764 761 758 754 750 746 742 737 733 728 722 716 710 705 701 696 691 685
702 706 711 719 726 731 736 742 749 755 758 762 766 770 772 773 774 774 774 773 772 770 770 768 765 761 757 754 750 747 742 738 733 728 723 719 713 708 703 697 692 687 682
709 713 718 725 732 737 743 749 753 757 760 764 768 770 772 773 773 773 773 772 771 771 769 766 763 759 755 752 749 745 739 735 730 724 719 714 709 704 699 694 688 683 678
716 721 726 731 738 743 748 753 756 759 762 766 769 771 772 773 773 772 772 772 770 769 767 765 762 757 754 750 746 741 737 732 727 722 718 712 708 703 697 692 685 680 674
Wind_Speed
12 17 16 15 16 16 13 13 20 26 33 34 32 29 31 28 25 22 19 17 16 14 12 10 8 7 9 11 11 10 13 15 20 13 17 6 6 6 7 16 25 11 14
6 8 10 14 18 18 17 17 23 30 34 35 32 31 33 28 26 22 19 18 17 15 12 10 9 9 9 9 11 13 11 10 16 10 4 4 6 6 16 22 10 16 17
12 8 8 19 19 18 20 21 25 32 33 34 33 34 27 29 27 24 22 18 16 14 11 10 9 9 9 10 11 11 11 10 10 11 7 3 2 7 5 12 16 11 25
9 8 8 11 23 23 19 21 26 31 32 36 39 43 33 26 22 29 24 20 15 13 10 9 8 9 9 9 9 8 9 8 9 6 8 4 8 3 5 4 20 12 26
15 12 12 21 25 22 22 22 26 30 33 37 40 38 30 21 32 28 25 19 16 12 10 8 8 8 7 7 6 7 8 8 7 7 6 7 10 9 5 8 8 25 24
13 12 12 19 22 21 23 25 28 30 33 35 36 36 35 35 33 27 24 20 16 12 9 7 7 7 6 5 6 6 7 8 8 8 7 7 3 6 4 4 13 16 20
9 10 12 12 20 26 28 29 31 31 32 32 33 29 30 35 34 30 25 20 15 12 9 6 6 6 5 5 5 6 8 9 10 10 10 10 8 9 13 12 15 11 24
8 12 14 14 22 25 30 29 32 33 29 29 27 28 31 32 29 24 20 16 13 10 8 6 5 5 4 4 5 8 9 10 11 11 11 11 9 13 13 15 16 13 6
8 11 12 16 23 25 28 33 33 32 28 27 27 28 29 29 26 21 17 16 12 10 8 5 4 3 3 5 7 10 11 13 12 12 14 13 14 16 15 17 18 11 9
10 10 10 12 17 24 30 32 33 32 29 28 30 30 29 26 23 20 17 14 12 9 6 5 3 3 4 6 9 11 12 11 13 15 16 17 18 18 18 19 20 21 19
14 13 12 14 19 23 29 32 32 33 31 31 30 30 27 25 22 19 16 13 10 7 5 4 2 4 6 8 11 12 11 14 16 17 18 19 19 21 21 21 24 25 23
10 11 12 17 22 23 26 29 32 34 32 31 30 28 26 23 21 18 15 11 9 7 5 3 3 6 8 10 12 12 14 16 18 19 19 21 21 22 23 25 27 27 26
8 11 12 12 15 20 24 26 31 34 32 32 30 27 25 22 19 16 13 10 8 5 3 3 5 8 10 12 13 13 15 17 18 18 19 21 22 24 25 25 26 27 23
8 9 11 12 17 19 23 26 30 34 33 31 29 26 23 20 17 15 12 9 6 4 3 5 7 9 12 13 14 15 16 17 17 18 22 23 22 22 24 23 23 21 27
9 10 11 11 14 20 23 27 32 33 32 30 27 24 21 19 17 14 11 8 5 4 4 6 8 11 13 15 14 16 17 18 18 22 22 22 21 21 22 25 27 28 28
10 9 11 12 12 20 22 26 31 32 30 28 25 23 21 18 15 12 10 7 4 4 5 8 11 13 14 15 14 16 18 19 21 24 25 25 23 22 24 27 28 30 32
12 13 13 12 17 21 28 28 33 31 28 27 24 22 19 17 13 11 8 5 3 5 7 9 12 14 15 14 16 17 19 20 22 24 27 27 24 26 29 31 31 31 27
11 10 10 14 19 26 28 32 32 29 27 25 23 20 18 15 12 9 6 4 4 7 9 11 13 15 17 15 17 18 19 21 22 25 25 25 27 27 29 34 25 29 27
10 9 16 20 25 29 32 33 30 28 26 24 21 19 16 14 11 8 5 3 6 8 10 12 15 16 17 17 18 19 21 23 25 25 21 22 26 29 33 31 28 28 27
16 17 21 25 27 27 33 32 28 27 25 23 20 17 14 12 9 6 4 5 6 8 12 14 14 15 17 19 18 19 21 22 23 20 23 20 27 31 30 32 28 24 31
16 22 21 20 25 31 33 27 28 25 24 22 19 16 13 11 8 5 4 5 8 11 12 14 16 18 18 19 18 19 22 24 23 24 23 24 29 32 32 30 25 27 31
14 19 22 21 24 30 33 27 25 25 24 22 19 16 12 9 6 4 5 7 9 11 13 17 21 19 20 19 18 19 21 24 26 24 24 28 31 32 29 26 24 27 27
16 19 23 24 25 27 32 29 26 26 24 21 17 14 11 7 5 5 6 8 10 12 14 17 18 22 22 21 20 20 22 25 25 25 29 29 29 27 24 23 25 24 23
15 21 24 21 21 25 26 30 27 24 21 19 15 12 8 5 4 5 7 9 12 13 16 18 18 21 21 20 22 23 26 21 24 25 24 26 24 21 23 23 23 23 23
17 20 22 21 23 28 28 26 24 21 19 17 13 9 6 3 4 6 7 11 11 11 16 17 18 19 17 18 22 24 25 26 26 28 23 22 21 21 22 23 24 24 24
20 22 23 27 27 29 25 21 18 16 17 15 10 7 4 3 6 9 10 9 10 11 12 14 15 18 17 21 22 23 25 26 25 20 19 19 20 20 22 23 26 26 25
Wind_Direction
257 265 263 246 218 210 202 193 191 192 185 171 162 157 152 151 148 149 148 146 141 135 129 121 98 69 46 44 37 32 22 17 9 2 346 345 335 262 292 332 315 309 333
246 245 230 205 207 209 192 181 186 181 178 175 167 158 153 150 146 144 142 142 139 131 127 112 90 67 59 53 41 35 30 23 21 8 335 354 337 15 314 309 333 308 307
243 228 198 207 204 206 195 185 181 181 179 173 163 153 148 141 139 143 141 138 137 129 120 104 86 76 61 53 45 37 33 21 23 32 39 350 307 325 310 294 303 314 308
221 214 196 194 208 200 198 191 183 183 179 173 166 162 155 150 160 152 144 138 133 126 116 101 87 69 58 55 48 37 35 29 26 21 1 335 292 315 318 304 308 309 312
213 202 196 200 204 193 186 188 183 184 180 175 171 165 156 161 155 148 143 139 130 123 114 97 79 67 59 55 46 33 27 21 14 3 339 323 301 280 252 303 310 312 312
208 202 190 174 180 184 178 179 178 180 179 178 175 174 168 155 150 149 143 137 131 121 107 93 81 72 64 52 34 20 9 359 350 340 330 321 309 297 294 290 308 303 312
191 170 162 162 162 174 175 175 177 172 177 178 178 174 167 163 160 155 149 142 133 122 111 100 87 74 58 36 17 3 351 342 336 329 325 320 305 305 305 304 306 305 311
185 184 180 171 169 169 170 169 172 168 174 175 171 170 166 161 156 153 146 138 135 126 118 103 84 66 42 16 358 349 340 330 327 321 320 311 298 307 305 308 310 314 292
178 182 175 175 165 164 168 168 168 164 167 166 162 159 157 154 150 146 142 137 131 125 118 100 81 53 15 355 343 337 334 326 326 326 322 307 299 301 296 303 308 286 308
174 172 174 162 160 158 160 167 168 161 159 158 155 152 151 150 146 143 138 137 129 124 112 95 72 29 358 342 334 332 331 327 329 326 320 311 305 298 291 298 302 292 271
180 171 154 145 134 142 151 156 159 154 153 154 150 147 144 143 141 139 136 133 127 118 110 94 53 360 345 339 335 335 335 329 325 322 318 313 312 302 294 296 299 291 275
161 150 142 139 140 139 144 149 152 153 152 151 148 144 141 141 139 136 132 129 125 119 103 71 12 346 339 341 342 338 333 328 325 323 320 318 317 307 302 300 299 287 279
106 121 133 138 133 136 137 142 149 150 149 149 146 142 140 141 137 133 131 131 126 115 86 29 356 345 344 343 342 338 332 328 324 323 323 322 320 312 310 305 296 290 286
136 144 142 136 132 134 135 140 146 150 149 149 146 143 143 141 138 136 134 130 122 101 55 10 353 346 345 344 344 338 328 325 325 325 324 321 318 311 309 307 302 306 301
157 157 144 137 131 127 133 142 147 149 150 148 147 144 143 142 140 137 133 125 111 76 26 357 351 349 346 344 336 327 324 323 323 327 326 322 316 308 310 311 314 307 300
156 148 138 138 136 138 140 142 146 149 153 150 147 147 146 143 140 137 132 124 100 47 11 358 352 347 341 335 327 323 319 322 324 322 321 323 321 315 312 312 309 306 306
158 159 155 150 145 146 147 145 151 154 154 149 148 149 147 142 140 137 129 112 71 21 7 359 347 337 335 334 326 322 319 320 320 318 319 320 318 316 317 312 304 302 313
157 150 144 133 138 143 147 151 154 155 152 149 149 149 148 142 138 132 121 97 36 10 0 347 338 335 339 334 326 324 320 319 318 320 319 315 318 320 314 311 315 319 313
142 138 144 140 142 147 152 150 152 153 151 150 149 151 149 141 136 126 109 60 18 3 346 342 341 338 334 336 332 327 321 319 321 321 317 316 318 317 317 322 319 316 312
125 132 135 135 137 144 151 146 147 152 151 152 149 146 143 136 131 121 87 34 5 352 342 339 339 337 336 340 330 326 323 321 319 321 321 318 321 319 322 323 322 320 310
117 128 129 132 138 147 149 137 147 148 150 147 140 135 132 131 123 102 62 18 357 347 344 336 340 342 341 337 331 329 330 327 323 325 322 320 320 323 323 321 323 310 316
115 117 115 116 133 146 147 136 140 145 144 138 133 131 129 123 113 80 41 7 353 347 348 344 338 338 340 340 331 332 331 327 327 322 320 316 322 323 323 323 320 321 322
105 113 117 113 128 145 148 133 138 141 138 136 131 130 128 116 91 48 15 4 357 351 344 337 329 331 335 337 338 332 329 327 324 322 318 320 323 324 324 324 322 323 319
105 115 114 111 108 134 137 136 140 140 138 132 131 131 122 96 66 25 8 357 352 344 338 333 323 327 330 333 335 331 326 324 325 323 324 323 326 326 322 322 322 321 320
103 109 110 108 110 126 127 133 137 141 134 131 128 122 114 82 29 5 359 348 344 338 327 323 325 326 324 326 327 328 327 330 328 328 325 327 328 325 324 323 322 322 319
106 101 103 110 118 123 125 130 136 142 135 128 128 117 95 44 9 353 341 347 338 326 327 326 327 325 320 325 328 328 330 328 328 331 326 322 322 320 320 319 317 316 317